Location: Marcé
(47.5801°N, 0.3280°W)
Time: 21:33:22
(UTC+01:00)

Tiros 1 - Pass Details

Date: 05 December 2021
Orbit: 630 x 663 km, 48.4° (Epoch: 20 January)

Event Time Altitude Azimuth Distance (km) Brightness Sun altitude
Rises 23:35:16 0° 285° (WNW) 2,947 - -60.6°
Reaches altitude 10° 23:37:36 10° 282° (WNW) 2,041 - -60.8°
Maximum altitude 23:42:15 64° 202° (SSW) 720 - -61.3°
Drops below altitude 10° 23:46:57 10° 121° (ESE) 2,057 - -61.7°
Sets 23:49:18 0° 119° (ESE) 2,972 - -61.9°
